Hakuhomaru — JJ4011 — position and weather

sailwx.info

Track history (hours):
 
Tides and Currents Weather Stations Pressure Air Temp Water Temp Dewpoint Dewpoint Depression Visibility Wind Speed Wind Dir Waves Ship Positions

Hakuhomaru

Last reported at 2014-Oct-20 22:33 UTC. Time now 2014-Oct-20 22:48 UTC.
Position N 34°40' E 135°15'.

Length 38 m; draft 3.3 m.

Type: Tug. MMSI: 431401584.

Date/timePositionNaut miles runAvg speedWind from/ knotsBaromVisibWave heightAir tempDewpointWater temp
2014-Oct-20 22:33N 34°40' E 135°15'1 1.0
2014-Oct-20 21:33N 34°40' E 135°14'2 1.7
2014-Oct-20 20:33N 34°41' E 135°12'0 0.0
2014-Oct-20 06:34N 34°41' E 135°12'0 0.0
2014-Oct-20 05:33N 34°41' E 135°12'0 0.0
2014-Oct-20 04:33N 34°41' E 135°12'0 0.0
2014-Oct-20 03:33N 34°41' E 135°12'0 0.0
2014-Oct-20 02:33N 34°41' E 135°12'0 0.0
2014-Oct-20 01:33N 34°41' E 135°12'0 0.0
2014-Oct-20 00:33N 34°41' E 135°12'2 2.0
2014-Oct-19 23:33N 34°42' E 135°14'1 0.5
2014-Oct-19 22:33N 34°42' E 135°15'1 1.3
2014-Oct-19 21:33N 34°41' E 135°14'2 1.5
2014-Oct-19 20:33N 34°41' E 135°12'0 0.0
2014-Oct-19 08:33N 34°41' E 135°12'3 3.1
2014-Oct-19 07:33N 34°39' E 135°15'1 0.8
2014-Oct-19 06:33N 34°40' E 135°15'0 0.4
2014-Oct-19 05:33N 34°40' E 135°15'0 0.0
2014-Oct-19 04:33N 34°40' E 135°15'0 0.0
2014-Oct-19 03:33N 34°40' E 135°15'1 0.9
2014-Oct-19 02:32N 34°39' E 135°15'3 2.9
2014-Oct-19 01:33N 34°41' E 135°12'0 0.0
2014-Oct-19 00:33N 34°41' E 135°12'0 0.0
2014-Oct-18 23:33N 34°41' E 135°12'2 2.4
2014-Oct-18 22:33N 34°41' E 135°15'3 2.8
2014-Oct-18 21:33N 34°40' E 135°12'1 0.0
2014-Oct-18 06:33N 34°41' E 135°12'0 0.0
2014-Oct-18 05:33N 34°41' E 135°12'1 1.3
2014-Oct-18 04:33N 34°41' E 135°14'3 3.0
2014-Oct-18 03:33N 34°41' E 135°17'1 0.6
2014-Oct-18 02:33N 34°41' E 135°17'4 3.7
2014-Oct-18 01:33N 34°41' E 135°12'0 0.0
2014-Oct-18 00:33N 34°41' E 135°12'0 0.0
2014-Oct-17 23:33N 34°41' E 135°12'0 0.0
2014-Oct-17 22:33N 34°41' E 135°12'0 0.0
2014-Oct-17 13:33N 34°41' E 135°13'2 2.2
2014-Oct-17 12:33N 34°42' E 135°15'0 0.0
2014-Oct-17 11:34N 34°42' E 135°15'2 2.2
2014-Oct-17 10:33N 34°39' E 135°15'1 0.6
2014-Oct-17 09:33N 34°40' E 135°14'3 2.7
2014-Oct-17 08:33N 34°41' E 135°17'4 4.0
2014-Oct-17 07:33N 34°41' E 135°12'1 1.0
2014-Oct-17 06:33N 34°40' E 135°13'0 0.0
2014-Oct-17 05:34N 34°40' E 135°13'1 0.8
2014-Oct-17 04:33N 34°40' E 135°14'2 0.5
2014-Oct-17 00:32N 34°41' E 135°12'4 4.3
2014-Oct-16 23:33N 34°41' E 135°17'1 1.3
2014-Oct-16 22:33N 34°40' E 135°19'1 0.9
2014-Oct-16 21:33N 34°41' E 135°18'5 4.6
2014-Oct-16 20:33N 34°41' E 135°12'0 0.0
2014-Oct-16 19:33N 34°41' E 135°12'0 0.0
2014-Oct-16 18:33N 34°41' E 135°12'0 0.0
2014-Oct-16 17:33N 34°41' E 135°12'3 2.7
2014-Oct-16 16:33N 34°42' E 135°15'2 1.8
2014-Oct-16 15:33N 34°40' E 135°15'1 0.6
2014-Oct-16 14:33N 34°40' E 135°14'1 1.2
2014-Oct-16 13:33N 34°39' E 135°15'0 0.0
2014-Oct-16 12:33N 34°39' E 135°15'0 0.0
2014-Oct-16 11:33N 34°39' E 135°15'1 1.2
2014-Oct-16 10:33N 34°40' E 135°14'0 0.0
2014-Oct-16 09:33N 34°40' E 135°14'0 0.2
2014-Oct-16 08:33N 34°40' E 135°14'0 0.2
2014-Oct-16 07:33N 34°40' E 135°14'1 1.4
2014-Oct-16 06:33N 34°41' E 135°14'0 0.2
2014-Oct-16 05:33N 34°41' E 135°14'2 1.6
2014-Oct-16 04:33N 34°42' E 135°16'0 0.0
2014-Oct-16 03:33N 34°42' E 135°16'1 1.4
2014-Oct-16 02:33N 34°41' E 135°15'0 0.3
2014-Oct-16 01:33N 34°41' E 135°14'0 0.0
2014-Oct-16 00:33N 34°41' E 135°14'1 0.8
2014-Oct-15 23:33N 34°42' E 135°15'2 1.5
2014-Oct-15 22:33N 34°40' E 135°15'0 0.4
2014-Oct-15 21:33N 34°40' E 135°14'2 1.7
2014-Oct-15 20:33N 34°41' E 135°12'1 0.1
2014-Oct-15 08:33N 34°40' E 135°12'1212.3
2014-Oct-15 07:33N 34°32' E 135°24'2 1.6
2014-Oct-15 06:32N 34°32' E 135°22'2 1.3
2014-Oct-15 05:20N 34°32' E 135°24'2 0.9
2014-Oct-15 03:31N 34°33' E 135°25'5 5.1
2014-Oct-15 02:33N 34°34' E 135°19'8 8.1
2014-Oct-15 01:33N 34°40' E 135°12'1 0.9
2014-Oct-15 00:33N 34°41' E 135°12'1 0.0
2014-Oct-13 14:33N 34°41' E 135°13'0 0.4
2014-Oct-13 13:33N 34°42' E 135°13'0 0.0
2014-Oct-13 12:33N 34°42' E 135°13'0 0.0
2014-Oct-13 11:33N 34°42' E 135°13'0 0.0
2014-Oct-13 10:33N 34°42' E 135°13'0 0.0
2014-Oct-13 09:33N 34°42' E 135°13'0 0.0
2014-Oct-13 08:33N 34°42' E 135°13'0 0.0
2014-Oct-13 07:33N 34°42' E 135°13'0 0.0
2014-Oct-13 06:33N 34°42' E 135°13'0 0.0
2014-Oct-13 05:33N 34°42' E 135°13'0 0.0
2014-Oct-13 04:33N 34°42' E 135°13'0 0.0
2014-Oct-13 03:33N 34°42' E 135°13'0 0.0
2014-Oct-13 02:33N 34°42' E 135°13'0 0.0
2014-Oct-13 01:33N 34°42' E 135°13'0 0.0
2014-Oct-13 00:32N 34°42' E 135°13'0 0.0
2014-Oct-12 23:33N 34°42' E 135°13'0 0.0
2014-Oct-12 22:33N 34°42' E 135°13'0 0.0
2014-Oct-12 21:33N 34°42' E 135°13'0 0.0
2014-Oct-12 20:33N 34°42' E 135°13'0 0.0
2014-Oct-12 19:33N 34°42' E 135°13'0 0.0
2014-Oct-12 18:33N 34°42' E 135°13'0 0.0
2014-Oct-12 17:33N 34°42' E 135°13'0 0.0
2014-Oct-12 16:33N 34°42' E 135°13'0 0.0
2014-Oct-12 15:33N 34°42' E 135°13'1 1.1
2014-Oct-12 14:33N 34°41' E 135°12'0 0.0
2014-Oct-12 06:28N 34°41' E 135°12'0 0.0
2014-Oct-12 05:33N 34°41' E 135°12'0 0.0
2014-Oct-12 04:33N 34°41' E 135°12'2 2.4
2014-Oct-12 03:33N 34°41' E 135°15'2 2.4
2014-Oct-12 02:33N 34°41' E 135°12'0 0.1
2014-Oct-12 01:33N 34°41' E 135°12'0 0.0
2014-Oct-12 00:33N 34°41' E 135°12'0 0.0
2014-Oct-11 23:33N 34°41' E 135°12'0 0.0
2014-Oct-11 22:33N 34°41' E 135°12'0 0.0
2014-Oct-11 13:22N 34°41' E 135°12'2 2.1
2014-Oct-11 12:33N 34°40' E 135°14'2 1.8
2014-Oct-11 11:33N 34°41' E 135°12'0 0.0
2014-Oct-11 10:33N 34°41' E 135°12'2 2.3
2014-Oct-11 09:33N 34°41' E 135°15'2 2.0
2014-Oct-11 08:32N 34°39' E 135°15'2 2.5
2014-Oct-11 07:33N 34°41' E 135°14'0 0.1
2014-Oct-11 06:33N 34°41' E 135°14'0 0.0
2014-Oct-11 05:33N 34°41' E 135°14'1 1.3
2014-Oct-11 04:33N 34°42' E 135°16'1 0.9
2014-Oct-11 03:33N 34°42' E 135°15'3 2.7
2014-Oct-11 02:33N 34°42' E 135°18'5 4.9
2014-Oct-11 01:33N 34°41' E 135°12'0 0.0
2014-Oct-11 00:33N 34°41' E 135°12'2 1.9
2014-Oct-10 23:33N 34°41' E 135°15'  
Track history (hours):
 
Tides and Currents Weather Stations Pressure Air Temp Water Temp Dewpoint Dewpoint Depression Visibility Wind Speed Wind Dir Waves Ship Positions

Hakuhomaru

Last reported at 2014-Oct-20 22:33 UTC. Time now 2014-Oct-20 22:48 UTC.
Position N 34°40' E 135°15'.

Length 38 m; draft 3.3 m.

Type: Tug. MMSI: 431401584.

Date/timePositionNaut miles runAvg speedWind from/ knotsBaromVisibWave heightAir tempDewpointWater temp
2014-Oct-20 22:33N 34°40' E 135°15'1 1.0
2014-Oct-20 21:33N 34°40' E 135°14'2 1.7
2014-Oct-20 20:33N 34°41' E 135°12'0 0.0
2014-Oct-20 06:34N 34°41' E 135°12'0 0.0
2014-Oct-20 05:33N 34°41' E 135°12'0 0.0
2014-Oct-20 04:33N 34°41' E 135°12'0 0.0
2014-Oct-20 03:33N 34°41' E 135°12'0 0.0
2014-Oct-20 02:33N 34°41' E 135°12'0 0.0
2014-Oct-20 01:33N 34°41' E 135°12'0 0.0
2014-Oct-20 00:33N 34°41' E 135°12'2 2.0
2014-Oct-19 23:33N 34°42' E 135°14'1 0.5
2014-Oct-19 22:33N 34°42' E 135°15'1 1.3
2014-Oct-19 21:33N 34°41' E 135°14'2 1.5
2014-Oct-19 20:33N 34°41' E 135°12'0 0.0
2014-Oct-19 08:33N 34°41' E 135°12'3 3.1
2014-Oct-19 07:33N 34°39' E 135°15'1 0.8
2014-Oct-19 06:33N 34°40' E 135°15'0 0.4
2014-Oct-19 05:33N 34°40' E 135°15'0 0.0
2014-Oct-19 04:33N 34°40' E 135°15'0 0.0
2014-Oct-19 03:33N 34°40' E 135°15'1 0.9
2014-Oct-19 02:32N 34°39' E 135°15'3 2.9
2014-Oct-19 01:33N 34°41' E 135°12'0 0.0
2014-Oct-19 00:33N 34°41' E 135°12'0 0.0
2014-Oct-18 23:33N 34°41' E 135°12'2 2.4
2014-Oct-18 22:33N 34°41' E 135°15'3 2.8
2014-Oct-18 21:33N 34°40' E 135°12'1 0.0
2014-Oct-18 06:33N 34°41' E 135°12'0 0.0
2014-Oct-18 05:33N 34°41' E 135°12'1 1.3
2014-Oct-18 04:33N 34°41' E 135°14'3 3.0
2014-Oct-18 03:33N 34°41' E 135°17'1 0.6
2014-Oct-18 02:33N 34°41' E 135°17'4 3.7
2014-Oct-18 01:33N 34°41' E 135°12'0 0.0
2014-Oct-18 00:33N 34°41' E 135°12'0 0.0
2014-Oct-17 23:33N 34°41' E 135°12'0 0.0
2014-Oct-17 22:33N 34°41' E 135°12'0 0.0
2014-Oct-17 13:33N 34°41' E 135°13'2 2.2
2014-Oct-17 12:33N 34°42' E 135°15'0 0.0
2014-Oct-17 11:34N 34°42' E 135°15'2 2.2
2014-Oct-17 10:33N 34°39' E 135°15'1 0.6
2014-Oct-17 09:33N 34°40' E 135°14'3 2.7
2014-Oct-17 08:33N 34°41' E 135°17'4 4.0
2014-Oct-17 07:33N 34°41' E 135°12'1 1.0
2014-Oct-17 06:33N 34°40' E 135°13'0 0.0
2014-Oct-17 05:34N 34°40' E 135°13'1 0.8
2014-Oct-17 04:33N 34°40' E 135°14'2 0.5
2014-Oct-17 00:32N 34°41' E 135°12'4 4.3
2014-Oct-16 23:33N 34°41' E 135°17'1 1.3
2014-Oct-16 22:33N 34°40' E 135°19'1 0.9
2014-Oct-16 21:33N 34°41' E 135°18'5 4.6
2014-Oct-16 20:33N 34°41' E 135°12'0 0.0
2014-Oct-16 19:33N 34°41' E 135°12'0 0.0
2014-Oct-16 18:33N 34°41' E 135°12'0 0.0
2014-Oct-16 17:33N 34°41' E 135°12'3 2.7
2014-Oct-16 16:33N 34°42' E 135°15'2 1.8
2014-Oct-16 15:33N 34°40' E 135°15'1 0.6
2014-Oct-16 14:33N 34°40' E 135°14'1 1.2
2014-Oct-16 13:33N 34°39' E 135°15'0 0.0
2014-Oct-16 12:33N 34°39' E 135°15'0 0.0
2014-Oct-16 11:33N 34°39' E 135°15'1 1.2
2014-Oct-16 10:33N 34°40' E 135°14'0 0.0
2014-Oct-16 09:33N 34°40' E 135°14'0 0.2
2014-Oct-16 08:33N 34°40' E 135°14'0 0.2
2014-Oct-16 07:33N 34°40' E 135°14'1 1.4
2014-Oct-16 06:33N 34°41' E 135°14'0 0.2
2014-Oct-16 05:33N 34°41' E 135°14'2 1.6
2014-Oct-16 04:33N 34°42' E 135°16'0 0.0
2014-Oct-16 03:33N 34°42' E 135°16'1 1.4
2014-Oct-16 02:33N 34°41' E 135°15'0 0.3
2014-Oct-16 01:33N 34°41' E 135°14'0 0.0
2014-Oct-16 00:33N 34°41' E 135°14'1 0.8
2014-Oct-15 23:33N 34°42' E 135°15'2 1.5
2014-Oct-15 22:33N 34°40' E 135°15'0 0.4
2014-Oct-15 21:33N 34°40' E 135°14'2 1.7
2014-Oct-15 20:33N 34°41' E 135°12'1 0.1
2014-Oct-15 08:33N 34°40' E 135°12'1212.3
2014-Oct-15 07:33N 34°32' E 135°24'2 1.6
2014-Oct-15 06:32N 34°32' E 135°22'2 1.3
2014-Oct-15 05:20N 34°32' E 135°24'2 0.9
2014-Oct-15 03:31N 34°33' E 135°25'5 5.1
2014-Oct-15 02:33N 34°34' E 135°19'8 8.1
2014-Oct-15 01:33N 34°40' E 135°12'1 0.9
2014-Oct-15 00:33N 34°41' E 135°12'1 0.0
2014-Oct-13 14:33N 34°41' E 135°13'0 0.4
2014-Oct-13 13:33N 34°42' E 135°13'0 0.0
2014-Oct-13 12:33N 34°42' E 135°13'0 0.0
2014-Oct-13 11:33N 34°42' E 135°13'0 0.0
2014-Oct-13 10:33N 34°42' E 135°13'0 0.0
2014-Oct-13 09:33N 34°42' E 135°13'0 0.0
2014-Oct-13 08:33N 34°42' E 135°13'0 0.0
2014-Oct-13 07:33N 34°42' E 135°13'0 0.0
2014-Oct-13 06:33N 34°42' E 135°13'0 0.0
2014-Oct-13 05:33N 34°42' E 135°13'0 0.0
2014-Oct-13 04:33N 34°42' E 135°13'0 0.0
2014-Oct-13 03:33N 34°42' E 135°13'0 0.0
2014-Oct-13 02:33N 34°42' E 135°13'0 0.0
2014-Oct-13 01:33N 34°42' E 135°13'0 0.0
2014-Oct-13 00:32N 34°42' E 135°13'0 0.0
2014-Oct-12 23:33N 34°42' E 135°13'0 0.0
2014-Oct-12 22:33N 34°42' E 135°13'0 0.0
2014-Oct-12 21:33N 34°42' E 135°13'0 0.0
2014-Oct-12 20:33N 34°42' E 135°13'0 0.0
2014-Oct-12 19:33N 34°42' E 135°13'0 0.0
2014-Oct-12 18:33N 34°42' E 135°13'0 0.0
2014-Oct-12 17:33N 34°42' E 135°13'0 0.0
2014-Oct-12 16:33N 34°42' E 135°13'0 0.0
2014-Oct-12 15:33N 34°42' E 135°13'1 1.1
2014-Oct-12 14:33N 34°41' E 135°12'0 0.0
2014-Oct-12 06:28N 34°41' E 135°12'0 0.0
2014-Oct-12 05:33N 34°41' E 135°12'0 0.0
2014-Oct-12 04:33N 34°41' E 135°12'2 2.4
2014-Oct-12 03:33N 34°41' E 135°15'2 2.4
2014-Oct-12 02:33N 34°41' E 135°12'0 0.1
2014-Oct-12 01:33N 34°41' E 135°12'0 0.0
2014-Oct-12 00:33N 34°41' E 135°12'0 0.0
2014-Oct-11 23:33N 34°41' E 135°12'0 0.0
2014-Oct-11 22:33N 34°41' E 135°12'0 0.0
2014-Oct-11 13:22N 34°41' E 135°12'2 2.1
2014-Oct-11 12:33N 34°40' E 135°14'2 1.8
2014-Oct-11 11:33N 34°41' E 135°12'0 0.0
2014-Oct-11 10:33N 34°41' E 135°12'2 2.3
2014-Oct-11 09:33N 34°41' E 135°15'2 2.0
2014-Oct-11 08:32N 34°39' E 135°15'2 2.5
2014-Oct-11 07:33N 34°41' E 135°14'0 0.1
2014-Oct-11 06:33N 34°41' E 135°14'0 0.0
2014-Oct-11 05:33N 34°41' E 135°14'1 1.3
2014-Oct-11 04:33N 34°42' E 135°16'1 0.9
2014-Oct-11 03:33N 34°42' E 135°15'3 2.7
2014-Oct-11 02:33N 34°42' E 135°18'5 4.9
2014-Oct-11 01:33N 34°41' E 135°12'0 0.0
2014-Oct-11 00:33N 34°41' E 135°12'2 1.9
2014-Oct-10 23:33N 34°41' E 135°15'  

Dump ship's entire track history